INTELSAT 19 (IS-19)

Last updated on Jan. 28, 2020, 4:41 a.m. UTC

1 38356U 12030A   20027.81459852 -.00000061  00000-0  00000-0 0  9992
2 38356   0.0124  75.2534 0002861 241.0512 269.5010  1.00269806 27073
UTC
Height (km)
Latitude
Longitude
Inclination
Orbital Period
UTC large
Height (km)
Speed (km/s)
/
Latitude / Longitude
Inclination (degrees)
Orbital Period (minutes)
Azimuth
Elevation
Range (km)
Doppler Factor
iOS Compass Heading
iOS Angle

Next 30 passes for location: Hong Kong

Rise time Rise Azimuth (degrees) Set time Set Azimuth (degrees) Duration Max altitude (degrees)

No matching passes for this satellites